Location: East Horndon
(51.5667°N, 0.3500°E)
Time: 22:30:01
(UTC+00:00)

ADEOS II - Pass Details

Date: 08 November 2025
Orbit: 794 x 794 km, 98.8° (Epoch: 04 December)

Event Time Altitude Azimuth Distance (km) Brightness Sun altitude
Rises 03:35:55 0° 12° (NNE) 3,311 5.6 -32.4°
Reaches altitude 10° 03:38:18 10° 8° (N) 2,377 4.7 -32.1°
Enters shadow 03:39:49 19° 3° (N) 1,807 4.0 -31.8°
